Location: Mount Kobau Star Party
(49.1167°N, 119.7333°W)
Time: 04:04:23
(UTC-07:00)

BlueWalker 3 - Pass Details

Date: 29 February 2024
Orbit: 485 x 495 km, 53.2° (Epoch: 22 April)

Event Time Altitude Azimuth Distance (km) Brightness Sun altitude
Rises 17:59:37 0° 287° (WNW) 2,563 7.0 -3.7°
Reaches altitude 10° 18:01:52 10° 293° (WNW) 1,678 5.7 -4.1°
Maximum altitude 18:05:31 46° 8° (N) 661 2.5 -4.7°
Drops below altitude 10° 18:09:10 10° 83° (E) 1,668 3.9 -5.3°
Enters shadow 18:09:50 - 86° (E) 1,925 4.2 -5.4°
